CW8081 Weather Reports


Display with metric or nautical units.
time (UTC)temp
F
wind
direction
speed
MPH
gust
MPH
rain 1hr
in
rain 24hr
in
rain mn
in
humidity
%
barometer
mb
20260905073604 80 311 0.0 0.0 0.00 2.02 0.00 64 1017.6
20260905073105 80 310 0.0 0.0 0.00 2.02 0.00 66 1017.6
20260905071605 79 305 0.0 0.0 0.00 2.02 0.00 67 1017.6
20260905071105 79 305 0.0 0.0 0.00 2.02 0.00 68 1017.6
20260905064104 79 310 0.0 0.0 0.00 2.02 0.00 72 1017.6
20260905063604 79 311 0.0 0.0 0.00 2.02 0.00 72 1017.6
20260905061605 77 315 0.0 0.0 0.00 2.02 0.00 68 1017.6
20260905061105 76 315 0.0 0.0 0.00 2.02 0.00 68 1017.6
20260905060605 75 316 0.0 0.0 0.00 2.02 0.00 69 1017.5
20260905060106 75 316 0.0 0.0 0.00 2.02 0.00 70 1017.5
20260905054105 73 315 0.0 0.0 0.00 2.09 0.00 72 1017.5
20260905053105 72 315 0.0 0.0 0.00 2.09 0.00 73 1017.5
20260905051104 71 316 0.0 0.0 0.00 2.39 0.00 74 1017.4
20260905050604 71 315 0.0 0.0 0.00 3.24 0.00 73 1017.4
20260905050105 71 315 0.0 0.0 0.00 4.19 0.00 73 1017.4
20260905044605 71 315 0.0 0.0 0.00 6.98 0.00 73 1017.1
20260905043105 71 315 0.0 0.0 0.00 9.40 0.00 74 1017.1
20260905041105 71 316 0.0 0.0 0.00 9.40 0.00 75 1016.9
20260905034605 71 316 0.0 0.0 0.00 1.28 0.00 75 1016.8
20260905034104 71 316 0.0 0.0 0.00 1.37 0.00 75 1016.8
20260905031604 71 315 0.0 0.0 0.00 1.52 0.00 75 1016.5
20260905024105 72 315 0.0 0.0 0.00 1.64 0.00 72 1016.4
20260905021605 72 316 0.0 0.0 0.00 1.64 0.00 71 1016.4
20260905014104 73 315 0.0 0.0 0.00 1.64 0.00 69 1016.1
20260905011105 72 315 0.0 0.0 0.00 1.67 0.00 66 1016.1
20260905010604 72 315 0.0 0.0 0.00 1.68 0.00 66 1016.1
20260905010105 72 315 0.0 0.0 0.00 1.70 0.00 66 1016.1
20260905003105 73 315 0.0 0.0 0.00 1.70 0.00 65 1015.6
20260904234605 73 315 0.0 0.0 0.00 1.70 0.00 62 1015.6
20260904234104 73 315 0.0 0.0 0.00 1.70 0.00 62 1015.6
20260904233604 73 315 0.0 0.0 0.00 1.75 0.00 61 1015.6
20260904231605 73 315 0.0 0.0 0.00 2.12 0.00 61 1015.6
20260904231106 73 315 0.0 0.0 0.00 2.21 0.00 61 1015.6
20260904230106 73 315 0.0 0.0 0.00 2.39 0.00 61 1015.6
20260904224105 73 315 0.0 0.0 0.00 2.76 0.00 61 1015.6
20260904221104 74 315 0.0 0.0 0.00 3.24 0.00 61 1015.6
20260904220604 74 315 0.0 0.0 0.00 3.34 0.00 62 1015.6
20260904213605 75 315 0.0 0.0 0.00 3.88 0.00 61 1015.7
20260904213105 75 315 0.0 0.0 0.00 3.98 0.00 61 1015.7
20260904211604 75 315 0.0 0.0 0.00 4.19 0.00 61 1015.6
20260904210106 76 315 0.0 0.0 0.00 4.41 0.00 60 1015.6
20260904204605 76 315 0.0 0.0 0.00 4.42 4.41 56 1015.6
20260904204105 77 315 0.0 0.0 0.00 4.42 4.41 57 1015.5
20260904201605 78 315 0.0 0.0 0.00 4.64 4.41 56 1015.5
20260904200106 79 315 0.0 0.0 0.00 4.91 4.41 56 1015.4
20260904194605 80 315 0.0 0.0 0.00 5.19 4.41 56 1015.4
20260904193605 80 315 0.0 0.0 0.00 5.38 4.41 56 1015.4
20260904191105 81 315 0.0 0.0 0.00 5.83 4.41 54 1015.2
20260904190605 81 315 0.0 0.0 0.00 5.92 4.41 54 1015.2
20260904184605 83 313 0.0 0.0 0.00 6.27 4.41 52 1015.0
20260904180605 85 313 0.0 0.0 0.00 6.55 4.41 49 1014.3
20260904180106 85 312 0.0 0.0 0.00 6.55 4.41 48 1014.3
20260904174605 86 313 0.0 0.0 0.00 6.55 4.41 47 1014.1
20260904174104 86 313 0.0 0.0 0.00 6.55 4.41 46 1014.1
20260904173105 87 313 0.0 0.0 0.00 6.55 4.41 46 1014.1
20260904171604 88 313 0.0 0.0 0.00 6.55 4.41 45 1013.9
20260904170106 89 313 0.0 0.0 0.00 6.55 4.41 44 1013.3
20260904164105 90 312 0.0 0.0 0.00 6.55 4.41 42 1013.3
20260904163604 91 312 0.0 0.0 0.00 6.55 4.41 42 1013.3
20260904160605 93 311 0.0 0.0 0.00 6.55 4.41 37 1013.3
20260904160106 93 303 0.0 0.0 0.00 6.55 4.41 37 1013.3
20260904154105 93 328 0.0 0.0 0.00 6.55 4.41 33 1013.3
20260904153605 94 324 0.0 0.0 0.00 6.55 4.41 33 1013.2
20260904150604 93 0 0.0 0.0 0.00 6.55 4.41 37 1013.1
20260904150105 93 0 0.0 0.0 0.00 6.55 4.41 38 1013.3
20260904144105 92 0 0.0 0.0 0.00 6.55 4.41 38 1013.3
20260904141605 90 0 0.0 0.0 0.00 6.55 4.41 44 1013.5
20260904141105 90 229 0.0 0.0 0.00 6.55 4.41 43 1013.5
20260904134604 90 253 0.0 0.0 0.00 6.55 4.41 44 1013.6
20260904134105 90 0 0.0 0.0 0.00 6.55 4.41 47 1013.7
20260904133605 90 0 0.0 0.0 0.00 6.55 4.41 47 1013.7
20260904133105 91 0 0.0 0.0 0.00 6.55 4.41 45 1013.7
20260904131604 91 0 0.0 0.0 0.00 6.55 4.41 42 1013.7
20260904131105 91 0 0.0 0.0 0.00 6.55 4.41 40 1013.7
20260904130106 91 0 0.0 0.0 0.00 6.55 4.41 43 1013.9
20260904123605 91 336 0.0 0.0 0.00 6.55 4.41 40 1014.4
20260904121105 91 349 0.0 0.0 0.00 6.55 4.41 39 1014.4
20260904120604 91 353 0.0 0.0 0.00 6.55 4.41 40 1014.4
20260904114105 91 302 0.0 0.0 0.00 6.55 4.41 38 1014.6
20260904113605 91 296 0.0 0.0 0.00 6.55 4.41 42 1015.0
20260904110605 89 0 0.0 0.0 0.00 6.55 4.41 45 1015.0
20260904110106 89 354 0.0 0.0 0.30 6.55 4.41 46 1015.0
20260904100605 88 350 0.0 0.0 0.40 6.55 4.41 43 1015.7
20260904094104 87 322 0.0 0.0 0.01 6.51 4.37 44 1015.7
20260904090604 86 0 0.0 0.0 0.00 6.51 4.37 45 1015.8
20260904084604 85 45 0.0 0.0 1.61 6.51 4.37 47 1015.8
20260904084105 85 0 0.0 0.0 1.61 6.51 4.37 48 1015.8
20260904083104 85 353 0.0 0.0 1.61 6.51 4.37 49 1015.4
20260904081604 83 348 0.0 0.0 1.61 6.51 4.37 51 1015.4
20260904081105 83 335 0.0 0.0 1.61 6.51 4.37 52 1015.4
20260904080106 82 128 0.0 0.0 1.61 6.51 4.37 62 1015.4
20260904074604 80 1 0.0 0.0 0.00 6.35 4.21 67 1015.4